FENGYUN 1C DEB, 38817

Orbit data source: Space-Track

FENGYUN 1C DEB, 38817 is space debris in SSO originally from a launch on Mon, 10 May 1999 UTC launched from the Taiyaun Space Center, China (TSC). Fengyun 1C debris stems from the Chinese weather satellite Fengyun-1C, which was intentionally destroyed by a Chinese anti-satellite missile in 2007. This event dramatically increased the amount of space debris, with thousands of trackable fragments posing hazards to satellites and human spaceflight. The Fengyun 1C debris cloud has become a focal point in discussions about space sustainability and the need for international regulations to prevent the creation of new debris.

Loading next visibility...
Identifier
38817, 1999-025EVH
Orbit
SSO
Country
Flag of CNCN / PRC
Related business
Manufacturer
Unknown
Mission
Spacecraft
Bus & Motor
Unknown
Mass
Unknown
Launch date (UTC)
1999-05-10 (27 years ago)
Launch vehicle
Unknown
Launch site
Taiyaun Space Center, China (TSC)
Object type
Payload
Rocket body
Debris
Shape & HBR
Unknown shape, 0.1 m
Radar Cross Section
Small (<0.1 m²)

Expand to show TLE details & history
Last TLE update: 6 days ago

TLE from 6 days ago
0 FENGYUN 1C DEB
1 38817U 99025EVH 26250.33134662  .00000751  00000-0  81840-3 0  9992
2 38817  98.5783  92.5489 0290601  63.5547 299.5101 13.58447297694808
Epoch: 2026-09-07T07:57Z
TLE epoch observation values (Epoch: 2026-09-07T07:57:08.347Z)
Latitude
-0.00005°
Longitude
-13.14952°
Altitude
942.799 km
Speed
7.431 km/s
True Right ascension
06h 10m 11s
True Declination
0° 00' 00"
Sunlit
Object was in daylight at epoch
Visualization orbit readout
Latitude
Unknown
Longitude
Unknown
Altitude
Unknown
Speed
Unknown
Apparent Right ascension
Unknown
Apparent Declination
Unknown
Sunlit
N/A
Visualization observer readout
Local Sidereal Time
13:44:21
Azimuth
Unknown
Elevation
Unknown
Doppler factor
Unknown
Orbital elements
Apogee altitude
1,254.103 km
Perigee altitude
823.042 km
Semi-major axis
7,416.709 km
Eccentricity
0.02906
Inclination
98.5783°
RAAN
92.5489°
Arg. of periapsis
63.5547°
True anomaly
296.56061°
Mean anomaly
299.5101°
Eccentric anomaly
298.04053°
Mean motion
3.39802 °/min
Orbital period
105.94 mins
BSTAR
0.0008184
Loading maneuver chart data...
Computing Atmospheric mass density...

Documentation

Showing up to 5 results
|